Location: Warszawa
(52.2500°N, 21.0000°E)
Time: 14:49:09
(UTC+02:00)

Vanguard 2 - Pass Details

Date: 07 February 2023
Orbit: 553 x 2927 km, 32.9° (Epoch: 27 March)

Event Time Altitude Azimuth Distance (km) Brightness Sun altitude
Rises 23:01:47 0° 252° (WSW) 5,588 11.9 -51.7°
Enters shadow 23:04:25 - 247° (WSW) 5,075 11.6 -51.8°
Reaches altitude 10° 23:05:31 10° 244° (WSW) 4,878 - -51.9°
Maximum altitude 23:18:15 36° 186° (S) 3,844 - -52.4°
Drops below altitude 10° 23:33:13 10° 129° (SE) 5,725 - -52.8°
Sets 23:38:05 0° 122° (ESE) 6,638 - -52.8°
